Year,Month,Day,Hour,Minute,Value (Times are PST for temperature in C)
2008,10,14,00,00,9.30
2008,10,14,00,01,9.30
2008,10,14,00,02,9.30
2008,10,14,00,03,9.20
2008,10,14,00,04,9.20
2008,10,14,00,05,9.20
2008,10,14,00,06,9.20
2008,10,14,00,07,9.20
2008,10,14,00,08,9.20
2008,10,14,00,09,9.20
2008,10,14,00,10,9.20
2008,10,14,00,11,9.20
2008,10,14,00,12,9.10
2008,10,14,01,02,8.30
2008,10,14,01,03,8.30
2008,10,14,01,04,8.20
2008,10,14,01,05,8.20
2008,10,14,01,06,8.20
2008,10,14,01,07,8.20
2008,10,14,01,08,8.20
2008,10,14,01,09,8.20
2008,10,14,01,10,8.20
2008,10,14,01,11,8.20
2008,10,14,01,12,8.20
2008,10,14,01,13,8.20
2008,10,14,01,14,8.20
2008,10,14,01,15,8.10
2008,10,14,01,16,8.10
2008,10,14,01,17,8.10
2008,10,14,01,18,8.10
2008,10,14,01,19,8.10
2008,10,14,01,20,8.10
2008,10,14,01,21,8.00
2008,10,14,01,22,8.00
2008,10,14,01,23,8.00
2008,10,14,01,24,8.00
2008,10,14,01,25,8.00
2008,10,14,01,26,8.00
2008,10,14,01,27,8.00
2008,10,14,01,28,8.00
2008,10,14,01,29,8.00
2008,10,14,01,30,8.00
2008,10,14,01,31,7.90
2008,10,14,01,32,7.90
2008,10,14,01,33,7.90
2008,10,14,01,34,7.90
2008,10,14,01,35,7.90
2008,10,14,01,36,7.90
2008,10,14,01,37,7.90
2008,10,14,01,38,7.90
2008,10,14,01,39,7.90
2008,10,14,01,40,7.90
2008,10,14,01,41,7.90
2008,10,14,01,42,7.90
2008,10,14,01,43,7.90
2008,10,14,01,44,7.80
2008,10,14,01,45,7.80
2008,10,14,01,46,7.80
2008,10,14,01,47,7.80
2008,10,14,01,48,7.80
2008,10,14,01,49,7.80
2008,10,14,01,50,7.80
2008,10,14,01,51,7.80
2008,10,14,01,52,7.80
2008,10,14,01,53,7.80
2008,10,14,01,54,7.80
2008,10,14,01,55,7.80
2008,10,14,01,56,7.80
2008,10,14,01,57,7.70
2008,10,14,01,58,7.70
2008,10,14,01,59,7.70
2008,10,14,02,00,7.70
2008,10,14,02,01,7.60
2008,10,14,02,02,7.60
2008,10,14,02,03,7.60
2008,10,14,02,04,7.60
2008,10,14,02,05,7.50
2008,10,14,02,06,7.50
2008,10,14,02,07,7.50
2008,10,14,02,08,7.50
2008,10,14,02,09,7.40
2008,10,14,02,10,7.40
2008,10,14,02,11,7.40
2008,10,14,02,12,7.30
2008,10,14,02,13,7.30
2008,10,14,02,14,7.30
2008,10,14,02,15,7.30
2008,10,14,02,16,7.30
2008,10,14,02,17,7.30
2008,10,14,02,18,7.30
2008,10,14,02,19,7.30
2008,10,14,02,20,7.30
2008,10,14,02,21,7.30
2008,10,14,02,22,7.30
2008,10,14,02,23,7.30
2008,10,14,02,24,7.30
2008,10,14,02,25,7.30
2008,10,14,02,26,7.30
2008,10,14,02,27,7.30
2008,10,14,02,28,7.30
2008,10,14,02,29,7.30
2008,10,14,02,30,7.20
2008,10,14,02,31,7.20
2008,10,14,02,32,7.10
2008,10,14,02,33,7.10
2008,10,14,02,34,7.00
2008,10,14,02,35,7.00
2008,10,14,02,36,7.00
2008,10,14,02,37,6.90
2008,10,14,02,38,6.90
2008,10,14,02,39,6.90
2008,10,14,02,40,6.80
2008,10,14,02,41,6.80
2008,10,14,02,42,6.80
2008,10,14,02,43,6.80
2008,10,14,02,44,6.80
2008,10,14,02,45,6.80
2008,10,14,02,46,6.80
2008,10,14,02,47,6.80
2008,10,14,02,48,6.80
2008,10,14,02,49,6.80
2008,10,14,02,50,6.70
2008,10,14,02,51,6.70
2008,10,14,02,52,6.60
2008,10,14,02,53,6.60
2008,10,14,02,54,6.60
2008,10,14,02,55,6.50
2008,10,14,02,56,6.40
2008,10,14,02,57,6.40
2008,10,14,02,58,6.30
2008,10,14,02,59,6.30
2008,10,14,03,00,6.20
2008,10,14,03,01,6.20
2008,10,14,03,02,6.10
2008,10,14,03,03,6.10
2008,10,14,03,04,6.00
2008,10,14,03,05,6.00
2008,10,14,03,06,5.90
2008,10,14,03,07,5.90
2008,10,14,03,08,5.90
2008,10,14,03,09,5.90
2008,10,14,03,10,5.90
2008,10,14,03,11,5.90
2008,10,14,03,12,5.90
2008,10,14,03,13,5.90
2008,10,14,03,14,6.00
2008,10,14,03,15,6.00
2008,10,14,03,16,6.00
2008,10,14,03,17,6.00
2008,10,14,03,18,6.10
2008,10,14,03,19,6.10
2008,10,14,03,20,6.10
2008,10,14,03,21,6.10
2008,10,14,03,22,6.00
2008,10,14,03,23,6.00
2008,10,14,03,24,6.00
2008,10,14,03,25,6.00
2008,10,14,03,26,6.00
2008,10,14,03,27,5.90
2008,10,14,03,28,5.90
2008,10,14,03,29,5.80
2008,10,14,03,30,5.80
2008,10,14,03,31,5.80
2008,10,14,03,32,5.70
2008,10,14,03,33,5.70
2008,10,14,03,34,5.70
2008,10,14,03,35,5.70
2008,10,14,03,36,5.60
2008,10,14,03,37,5.60
2008,10,14,03,38,5.60
2008,10,14,03,39,5.50
2008,10,14,03,40,5.50
2008,10,14,03,41,5.40
2008,10,14,03,42,5.40
2008,10,14,03,43,5.30
2008,10,14,03,44,5.30
2008,10,14,03,45,5.30
2008,10,14,03,46,5.30
2008,10,14,03,47,5.30
2008,10,14,03,48,5.20
2008,10,14,03,49,5.20
2008,10,14,03,50,5.20
2008,10,14,03,51,5.20
2008,10,14,03,52,5.20
2008,10,14,03,53,5.10
2008,10,14,03,54,5.10
2008,10,14,03,55,5.10
2008,10,14,03,56,5.10
2008,10,14,03,57,5.10
2008,10,14,03,58,5.10
2008,10,14,03,59,5.10
2008,10,14,04,00,5.00
2008,10,14,04,01,4.90
2008,10,14,04,02,4.90
2008,10,14,04,03,4.90
2008,10,14,04,04,4.90
2008,10,14,04,05,4.90
2008,10,14,04,06,4.90
2008,10,14,04,07,4.90
2008,10,14,04,08,4.90
2008,10,14,04,09,4.90
2008,10,14,04,10,4.90
2008,10,14,04,11,4.80
2008,10,14,04,12,4.80
2008,10,14,04,13,4.80
2008,10,14,04,14,4.80
2008,10,14,04,15,4.70
2008,10,14,04,16,4.70
2008,10,14,04,17,4.70
2008,10,14,04,18,4.70
2008,10,14,04,19,4.70
2008,10,14,04,20,4.70
2008,10,14,04,21,4.70
2008,10,14,04,22,4.70
2008,10,14,04,23,4.70
2008,10,14,04,24,4.70
2008,10,14,04,25,4.60
2008,10,14,04,26,4.60
2008,10,14,04,27,4.60
2008,10,14,04,28,4.60
2008,10,14,04,29,4.60
2008,10,14,04,30,4.60
2008,10,14,04,31,4.60
2008,10,14,04,32,4.60
2008,10,14,04,33,4.50
2008,10,14,04,34,4.50
2008,10,14,04,35,4.50
2008,10,14,04,36,4.40
2008,10,14,04,37,4.40
2008,10,14,04,38,4.40
2008,10,14,04,39,4.30
2008,10,14,04,40,4.30
2008,10,14,04,41,4.30
2008,10,14,04,42,4.20
2008,10,14,04,43,4.20
2008,10,14,04,44,4.20
2008,10,14,04,45,4.20
2008,10,14,04,46,4.20
2008,10,14,04,47,4.10
2008,10,14,04,48,4.10
2008,10,14,04,49,4.00
2008,10,14,04,50,4.00
2008,10,14,04,51,4.00
2008,10,14,04,52,3.90
2008,10,14,04,53,3.90
2008,10,14,04,54,3.90
2008,10,14,04,55,3.80
2008,10,14,04,56,3.80
2008,10,14,04,57,3.80
2008,10,14,04,58,3.80
2008,10,14,04,59,3.80
2008,10,14,05,00,3.80
2008,10,14,05,01,3.80
2008,10,14,05,02,3.80
2008,10,14,05,03,3.90
2008,10,14,05,04,3.90
2008,10,14,05,05,3.90
2008,10,14,05,06,3.90
2008,10,14,05,07,3.90
2008,10,14,05,08,3.90
2008,10,14,05,09,3.90
2008,10,14,05,10,3.90
2008,10,14,05,11,3.90
2008,10,14,05,12,3.90
2008,10,14,05,13,3.90
2008,10,14,05,14,3.80
2008,10,14,05,15,3.80
2008,10,14,05,16,3.80
2008,10,14,05,17,3.80
2008,10,14,05,18,3.80
2008,10,14,05,19,3.80
2008,10,14,05,20,3.80
2008,10,14,05,21,3.80
2008,10,14,05,22,3.80
2008,10,14,05,23,3.80
2008,10,14,05,24,3.80
2008,10,14,05,25,3.90
2008,10,14,05,26,4.00
2008,10,14,05,27,4.10
2008,10,14,05,28,4.20
2008,10,14,05,29,4.20
2008,10,14,05,30,4.30
2008,10,14,05,31,4.40
2008,10,14,05,32,4.50
2008,10,14,05,33,4.60
2008,10,14,05,34,4.60
2008,10,14,05,35,4.70
2008,10,14,05,36,4.80
2008,10,14,05,37,4.90
2008,10,14,05,38,5.00
2008,10,14,05,39,5.10
2008,10,14,05,40,5.30
2008,10,14,05,41,5.60
2008,10,14,05,42,5.70
2008,10,14,05,43,5.90
2008,10,14,05,44,6.00
2008,10,14,05,45,6.20
2008,10,14,05,46,6.30
2008,10,14,05,47,6.40
2008,10,14,05,48,6.40
2008,10,14,05,49,6.40
2008,10,14,05,50,6.50
2008,10,14,05,51,6.60
2008,10,14,05,52,6.60
2008,10,14,05,53,6.60
2008,10,14,05,54,6.60
2008,10,14,05,55,6.60
2008,10,14,05,56,6.60
2008,10,14,05,57,6.60
2008,10,14,05,58,6.60
2008,10,14,05,59,6.70
2008,10,14,06,00,6.70
2008,10,14,06,01,6.70
2008,10,14,06,02,6.70
2008,10,14,06,03,6.70
2008,10,14,06,04,6.70
2008,10,14,06,05,6.70
2008,10,14,06,06,6.70
2008,10,14,06,07,6.70
2008,10,14,06,08,6.60
2008,10,14,06,09,6.60
2008,10,14,06,10,6.60
2008,10,14,06,11,6.60
2008,10,14,06,12,6.70
2008,10,14,06,13,6.70
2008,10,14,06,14,6.70
2008,10,14,06,15,6.70
2008,10,14,06,16,6.70
2008,10,14,06,17,6.70
2008,10,14,06,18,6.70
2008,10,14,06,19,6.70
2008,10,14,06,20,6.70
2008,10,14,06,21,6.70
2008,10,14,06,22,6.70
2008,10,14,06,23,6.60
2008,10,14,06,24,6.60
2008,10,14,06,25,6.60
2008,10,14,06,26,6.60
2008,10,14,06,27,6.60
2008,10,14,06,28,6.60
2008,10,14,06,29,6.70
2008,10,14,06,30,6.70
2008,10,14,06,31,6.70
2008,10,14,06,32,6.70
2008,10,14,06,33,6.70
2008,10,14,06,34,6.70
2008,10,14,06,35,6.70
2008,10,14,06,36,6.80
2008,10,14,06,37,6.80
2008,10,14,06,38,6.70
2008,10,14,06,39,6.70
2008,10,14,06,40,6.70
2008,10,14,06,41,6.70
2008,10,14,06,42,6.60
2008,10,14,06,43,6.60
2008,10,14,06,44,6.60
2008,10,14,06,45,6.60
2008,10,14,06,46,6.60
2008,10,14,06,47,6.60
2008,10,14,06,48,6.60
2008,10,14,06,49,6.60
2008,10,14,06,50,6.60
2008,10,14,06,51,6.60
2008,10,14,06,52,6.60
2008,10,14,06,53,6.60
2008,10,14,06,54,6.60
2008,10,14,06,55,6.60
2008,10,14,06,56,6.60
2008,10,14,06,57,6.40
2008,10,14,06,58,6.40
2008,10,14,06,59,6.40
2008,10,14,07,00,6.40
2008,10,14,07,01,6.30
2008,10,14,07,02,6.20
2008,10,14,07,03,6.20
2008,10,14,07,04,6.10
2008,10,14,07,05,6.00
2008,10,14,07,06,6.00
2008,10,14,07,07,5.90
2008,10,14,07,08,5.90
2008,10,14,07,09,5.80
2008,10,14,07,10,5.70
2008,10,14,07,11,5.60
2008,10,14,07,12,5.50
2008,10,14,07,13,5.40
2008,10,14,07,14,5.30
2008,10,14,07,15,5.30
2008,10,14,07,16,5.20
2008,10,14,07,17,5.10
2008,10,14,07,18,5.00
2008,10,14,07,19,4.90
2008,10,14,07,20,4.80
2008,10,14,07,21,4.70
2008,10,14,07,22,4.70
2008,10,14,07,23,4.60
2008,10,14,07,24,4.60
2008,10,14,07,25,4.60
2008,10,14,07,26,4.60
2008,10,14,07,27,4.60
2008,10,14,07,28,4.60
2008,10,14,07,29,4.60
2008,10,14,07,30,4.60
2008,10,14,07,31,4.60
2008,10,14,07,32,4.60
2008,10,14,07,33,4.70
2008,10,14,07,34,4.70
2008,10,14,07,35,4.70
2008,10,14,07,36,4.70
2008,10,14,07,37,4.70
2008,10,14,07,38,4.80
2008,10,14,07,39,5.00
2008,10,14,07,40,5.10
2008,10,14,07,41,5.30
2008,10,14,07,42,5.50
2008,10,14,07,43,5.50
2008,10,14,07,44,5.60
2008,10,14,07,45,5.60
2008,10,14,07,46,5.70
2008,10,14,07,47,5.70
2008,10,14,07,48,5.70
2008,10,14,07,49,5.70
2008,10,14,07,50,5.70
2008,10,14,07,51,5.70
2008,10,14,07,52,5.70
2008,10,14,07,53,5.70
2008,10,14,07,54,5.70
2008,10,14,07,55,5.70
2008,10,14,07,56,5.70
2008,10,14,07,57,5.70
2008,10,14,07,58,5.60
2008,10,14,07,59,5.60
2008,10,14,08,00,5.60
2008,10,14,08,01,5.50
2008,10,14,08,02,5.50
2008,10,14,08,03,5.40
2008,10,14,08,04,5.30
2008,10,14,08,05,5.30
2008,10,14,08,06,5.30
2008,10,14,08,07,5.30
2008,10,14,08,08,5.30
2008,10,14,08,09,5.30
2008,10,14,08,10,5.30
2008,10,14,08,11,5.30
2008,10,14,08,12,5.30
2008,10,14,08,13,5.30
2008,10,14,08,14,5.30
2008,10,14,08,15,5.30
2008,10,14,08,16,5.30
2008,10,14,08,17,5.20
2008,10,14,08,18,5.10
2008,10,14,08,19,5.10
2008,10,14,08,20,5.10
2008,10,14,08,21,5.10
2008,10,14,08,22,5.00
2008,10,14,08,23,4.90
2008,10,14,08,24,4.90
2008,10,14,08,25,4.90
2008,10,14,08,26,4.80
2008,10,14,08,27,4.80
2008,10,14,08,28,4.80
2008,10,14,08,29,4.70
2008,10,14,08,30,4.70
2008,10,14,08,31,4.70
2008,10,14,08,32,4.70
2008,10,14,08,33,4.80
2008,10,14,08,34,4.80
2008,10,14,08,35,4.80
2008,10,14,08,36,4.90
2008,10,14,08,37,4.90
2008,10,14,08,38,4.90
2008,10,14,08,39,5.00
2008,10,14,08,40,5.10
2008,10,14,08,41,5.10
2008,10,14,08,42,5.10
2008,10,14,08,43,5.10
2008,10,14,08,44,5.20
2008,10,14,08,45,5.20
2008,10,14,08,46,5.30
2008,10,14,08,47,5.30
2008,10,14,08,48,5.30
2008,10,14,08,49,5.30
2008,10,14,08,50,5.40
2008,10,14,08,51,5.40
2008,10,14,08,52,5.50
2008,10,14,08,53,5.50
2008,10,14,08,54,5.50
2008,10,14,08,55,5.60
2008,10,14,08,56,5.60
2008,10,14,08,57,5.70
2008,10,14,08,58,5.70
2008,10,14,08,59,5.70
2008,10,14,09,00,5.70
2008,10,14,09,01,5.70
2008,10,14,09,02,5.80
2008,10,14,09,03,5.80
2008,10,14,09,04,5.90
2008,10,14,09,05,5.90
2008,10,14,09,06,5.90
2008,10,14,09,07,6.00
2008,10,14,09,08,6.00
2008,10,14,09,09,6.10
2008,10,14,09,10,6.10
2008,10,14,09,11,6.20
2008,10,14,09,12,6.20
2008,10,14,09,13,6.20
2008,10,14,09,14,6.30
2008,10,14,09,15,6.40
2008,10,14,09,16,6.40
2008,10,14,09,17,6.40
2008,10,14,09,18,6.40
2008,10,14,09,19,6.40
2008,10,14,09,20,6.50
2008,10,14,09,21,6.60
2008,10,14,09,22,6.60
2008,10,14,09,23,6.60
2008,10,14,09,24,6.60
2008,10,14,09,25,6.60
2008,10,14,09,26,6.70
2008,10,14,09,27,6.70
2008,10,14,09,28,6.70
2008,10,14,09,29,6.80
2008,10,14,09,30,6.80
2008,10,14,09,31,6.80
2008,10,14,09,32,6.80
2008,10,14,09,33,6.90
2008,10,14,09,34,6.90
2008,10,14,09,35,7.00
2008,10,14,09,36,7.00
2008,10,14,09,37,7.10
2008,10,14,09,38,7.10
2008,10,14,09,39,7.20
2008,10,14,09,40,7.20
2008,10,14,09,41,7.30
2008,10,14,09,42,7.30
2008,10,14,09,43,7.30
2008,10,14,09,44,7.40
2008,10,14,09,45,7.40
2008,10,14,09,46,7.50
2008,10,14,09,47,7.50
2008,10,14,09,48,7.60
2008,10,14,09,49,7.60
2008,10,14,09,50,7.60
2008,10,14,09,51,7.70
2008,10,14,09,52,7.80
2008,10,14,09,53,7.80
2008,10,14,09,54,7.80
2008,10,14,09,55,7.90
2008,10,14,09,56,8.00
2008,10,14,09,57,8.00
2008,10,14,09,58,8.10
2008,10,14,09,59,8.10
2008,10,14,10,00,8.20
2008,10,14,10,01,8.20
2008,10,14,10,02,8.30
2008,10,14,10,03,8.30
2008,10,14,10,04,8.40
2008,10,14,10,05,8.40
2008,10,14,10,06,8.50
2008,10,14,10,07,8.50
2008,10,14,10,08,8.60
2008,10,14,10,09,8.70
2008,10,14,10,10,8.70
2008,10,14,10,11,8.70
2008,10,14,10,12,8.70
2008,10,14,10,13,8.80
2008,10,14,10,14,8.80
2008,10,14,10,15,8.90
2008,10,14,10,16,8.90
2008,10,14,10,17,8.90
2008,10,14,10,18,9.00
2008,10,14,10,19,9.00
2008,10,14,10,20,9.00
2008,10,14,10,21,9.10
2008,10,14,10,22,9.10
2008,10,14,10,23,9.10
2008,10,14,10,24,9.20
2008,10,14,10,25,9.20
2008,10,14,10,26,9.20
2008,10,14,10,27,9.30
2008,10,14,10,28,9.40
2008,10,14,10,29,9.40
2008,10,14,10,30,9.40
2008,10,14,10,31,9.50
2008,10,14,10,32,9.50
2008,10,14,10,33,9.50
2008,10,14,10,34,9.60
2008,10,14,10,35,9.60
2008,10,14,10,36,9.60
2008,10,14,10,37,9.60
2008,10,14,10,38,9.70
2008,10,14,10,39,9.70
2008,10,14,10,40,9.70
2008,10,14,10,41,9.70
2008,10,14,10,42,9.60
2008,10,14,10,43,9.60
2008,10,14,10,44,9.60
2008,10,14,10,45,9.60
2008,10,14,10,46,9.70
2008,10,14,10,47,9.70
2008,10,14,10,48,9.70
2008,10,14,10,49,9.70
2008,10,14,10,50,9.70
2008,10,14,10,51,9.70
2008,10,14,10,52,9.70
2008,10,14,10,53,9.70
2008,10,14,10,54,9.70
2008,10,14,10,55,9.70
2008,10,14,10,56,9.70
2008,10,14,10,57,9.70
2008,10,14,10,58,9.70
2008,10,14,10,59,9.70
2008,10,14,11,00,9.80
2008,10,14,11,01,9.80
2008,10,14,11,02,9.80
2008,10,14,11,03,9.80
2008,10,14,11,04,9.80
2008,10,14,11,05,9.80
2008,10,14,11,06,9.80
2008,10,14,11,07,9.90
2008,10,14,11,08,9.80
2008,10,14,11,09,9.80
2008,10,14,11,10,9.90
2008,10,14,11,11,9.90
2008,10,14,11,12,9.90
2008,10,14,11,13,9.90
2008,10,14,11,14,9.90
2008,10,14,11,15,9.90
2008,10,14,11,16,9.90
2008,10,14,11,17,9.90
2008,10,14,11,18,9.90
2008,10,14,11,19,9.90
2008,10,14,11,20,9.90
2008,10,14,11,21,9.90
2008,10,14,11,22,9.90
2008,10,14,11,23,9.90
2008,10,14,11,24,9.90
2008,10,14,11,25,9.90
2008,10,14,11,26,9.90
2008,10,14,11,27,9.90
2008,10,14,11,28,9.90
2008,10,14,11,29,9.90
2008,10,14,11,30,9.80
2008,10,14,11,31,9.70
2008,10,14,11,32,9.70
2008,10,14,11,33,9.70
2008,10,14,11,34,9.70
2008,10,14,11,35,9.70
2008,10,14,11,36,9.70
2008,10,14,11,37,9.80
2008,10,14,11,38,9.90
2008,10,14,11,39,9.90
2008,10,14,11,40,9.90
2008,10,14,11,41,9.90
2008,10,14,11,42,9.90
2008,10,14,11,43,9.90
2008,10,14,11,44,9.90
2008,10,14,11,45,10.00
2008,10,14,11,46,10.10
2008,10,14,11,47,10.10
2008,10,14,11,48,10.10
2008,10,14,11,49,10.10
2008,10,14,11,50,10.20
2008,10,14,11,51,10.20
2008,10,14,11,52,10.10
2008,10,14,11,53,10.10
2008,10,14,11,54,9.90
2008,10,14,11,55,9.90
2008,10,14,11,56,9.90
2008,10,14,11,57,9.90
2008,10,14,11,58,9.90
2008,10,14,11,59,10.00
2008,10,14,12,00,10.10
2008,10,14,12,01,10.10
2008,10,14,12,02,10.10
2008,10,14,12,03,10.10
2008,10,14,12,04,10.10
2008,10,14,12,05,10.10
2008,10,14,12,06,10.10
2008,10,14,12,07,10.20
2008,10,14,12,08,10.20
2008,10,14,12,09,10.20
2008,10,14,12,10,10.30
2008,10,14,12,11,10.30
2008,10,14,12,12,10.30
2008,10,14,12,13,10.20
2008,10,14,12,14,10.20
2008,10,14,12,15,10.20
2008,10,14,12,16,10.20
2008,10,14,12,17,10.10
2008,10,14,12,18,10.10
2008,10,14,12,19,10.10
2008,10,14,12,20,10.10
2008,10,14,12,21,10.10
2008,10,14,12,22,10.10
2008,10,14,12,23,10.10
2008,10,14,12,24,10.10
2008,10,14,12,25,10.20
2008,10,14,12,26,10.20
2008,10,14,12,27,10.30
2008,10,14,12,28,10.30
2008,10,14,12,29,10.40
2008,10,14,12,30,10.40
2008,10,14,12,31,10.40
2008,10,14,12,32,10.40
2008,10,14,12,33,10.50
2008,10,14,12,34,10.60
2008,10,14,12,35,10.60
2008,10,14,12,36,10.60
2008,10,14,12,37,10.60
2008,10,14,12,38,10.60
2008,10,14,12,39,10.50
2008,10,14,12,40,10.40
2008,10,14,12,41,10.40
2008,10,14,12,42,10.40
2008,10,14,12,43,10.40
2008,10,14,12,44,10.40
2008,10,14,12,45,10.40
2008,10,14,12,46,10.40
2008,10,14,12,47,10.40
2008,10,14,12,48,10.40
2008,10,14,12,49,10.40
2008,10,14,12,50,10.40
2008,10,14,12,51,10.40
2008,10,14,12,52,10.40
2008,10,14,12,53,10.50
2008,10,14,12,54,10.60
2008,10,14,12,55,10.70
2008,10,14,12,56,10.80
2008,10,14,12,57,10.80
2008,10,14,12,58,10.90
2008,10,14,12,59,10.90
2008,10,14,13,00,10.90
2008,10,14,13,01,10.80
2008,10,14,13,02,10.80
2008,10,14,13,03,10.80
2008,10,14,13,04,10.80
2008,10,14,13,05,10.70
2008,10,14,13,06,10.60
2008,10,14,13,07,10.60
2008,10,14,13,08,10.60
2008,10,14,13,09,10.50
2008,10,14,13,10,10.40
2008,10,14,13,11,10.40
2008,10,14,13,12,10.40
2008,10,14,13,13,10.40
2008,10,14,13,14,10.40
2008,10,14,13,15,10.40
2008,10,14,13,16,10.30
2008,10,14,13,17,10.30
2008,10,14,13,18,10.30
2008,10,14,13,19,10.20
2008,10,14,13,20,10.20
2008,10,14,13,21,10.20
2008,10,14,13,22,10.10
2008,10,14,13,23,10.00
2008,10,14,13,24,9.90
2008,10,14,13,25,9.90
2008,10,14,13,26,9.90
2008,10,14,13,27,9.90
2008,10,14,13,28,9.90
2008,10,14,13,29,9.90
2008,10,14,13,30,9.90
2008,10,14,13,31,9.90
2008,10,14,13,32,9.90
2008,10,14,13,33,9.90
2008,10,14,13,34,9.90
2008,10,14,13,35,9.90
2008,10,14,13,36,9.90
2008,10,14,13,37,9.90
2008,10,14,13,38,9.90
2008,10,14,13,39,9.90
2008,10,14,13,40,9.90
2008,10,14,13,41,9.90
2008,10,14,13,42,10.00
2008,10,14,13,43,10.00
2008,10,14,13,44,9.90
2008,10,14,13,45,10.00
2008,10,14,13,46,10.10
2008,10,14,13,47,10.10
2008,10,14,13,48,10.10
2008,10,14,13,49,10.10
2008,10,14,13,50,10.10
2008,10,14,13,51,10.10
2008,10,14,13,52,10.00
2008,10,14,13,53,10.00
2008,10,14,13,54,10.00
2008,10,14,13,55,10.00
2008,10,14,13,56,10.00
2008,10,14,13,57,9.90
2008,10,14,13,58,9.90
2008,10,14,13,59,9.90
2008,10,14,14,00,9.90
2008,10,14,14,01,9.90
2008,10,14,14,02,9.90
2008,10,14,14,03,9.90
2008,10,14,14,04,9.90
2008,10,14,14,05,9.90
2008,10,14,14,06,10.00
2008,10,14,14,07,10.10
2008,10,14,14,08,10.10
2008,10,14,14,09,10.10
2008,10,14,14,10,10.10
2008,10,14,14,11,10.10
2008,10,14,14,12,10.10
2008,10,14,14,13,10.10
2008,10,14,14,14,10.10
2008,10,14,14,15,10.10
2008,10,14,14,16,10.10
2008,10,14,14,17,10.10
2008,10,14,14,18,10.10
2008,10,14,14,19,10.10
2008,10,14,14,20,10.10
2008,10,14,14,21,10.10
2008,10,14,14,22,10.20
2008,10,14,14,23,10.20
2008,10,14,14,24,10.20
2008,10,14,14,25,10.20
2008,10,14,14,26,10.20
2008,10,14,14,27,10.20
2008,10,14,14,28,10.20
2008,10,14,14,29,10.20
2008,10,14,14,30,10.20
2008,10,14,14,31,10.20
2008,10,14,14,32,10.10
2008,10,14,14,33,10.10
2008,10,14,14,34,10.10
2008,10,14,14,35,10.10
2008,10,14,14,36,10.10
2008,10,14,14,37,10.10
2008,10,14,14,38,10.10
2008,10,14,14,39,10.10
2008,10,14,14,40,10.20
2008,10,14,14,41,10.20
2008,10,14,14,42,10.30
2008,10,14,14,43,10.30
2008,10,14,14,44,10.30
2008,10,14,14,45,10.30
2008,10,14,14,46,10.40
2008,10,14,14,47,10.40
2008,10,14,14,48,10.40
2008,10,14,14,49,10.50
2008,10,14,14,50,10.60
2008,10,14,14,51,10.50
2008,10,14,14,52,10.40
2008,10,14,14,53,10.40
2008,10,14,14,54,10.30
2008,10,14,14,55,10.20
2008,10,14,14,56,10.20
2008,10,14,14,57,10.20
2008,10,14,14,58,10.20
2008,10,14,14,59,10.30
2008,10,14,15,00,10.40
2008,10,14,15,01,10.40
2008,10,14,15,02,10.40
2008,10,14,15,03,10.40
2008,10,14,15,04,10.50
2008,10,14,15,05,10.60
2008,10,14,15,06,10.60
2008,10,14,15,07,10.60
2008,10,14,15,08,10.60
2008,10,14,15,09,10.50
2008,10,14,15,10,10.50
2008,10,14,15,11,10.50
2008,10,14,15,12,10.60
2008,10,14,15,13,10.40
2008,10,14,15,14,10.40
2008,10,14,15,15,10.40
2008,10,14,15,16,10.40
2008,10,14,15,17,10.40
2008,10,14,15,18,10.40
2008,10,14,15,19,10.50
2008,10,14,15,20,10.40
2008,10,14,15,21,10.40
2008,10,14,15,22,10.40
2008,10,14,15,23,10.40
2008,10,14,15,24,10.60
2008,10,14,15,25,10.60
2008,10,14,15,26,10.60
2008,10,14,15,27,10.70
2008,10,14,15,28,10.70
2008,10,14,15,29,10.80
2008,10,14,15,30,10.80
2008,10,14,15,31,10.80
2008,10,14,15,32,10.80
2008,10,14,15,33,10.80
2008,10,14,15,34,10.70
2008,10,14,15,35,10.70
2008,10,14,15,36,10.70
2008,10,14,15,37,10.70
2008,10,14,15,38,10.70
2008,10,14,15,39,10.70
2008,10,14,15,40,10.70
2008,10,14,15,41,10.70
2008,10,14,15,42,10.70
2008,10,14,15,43,10.70
2008,10,14,15,44,10.60
2008,10,14,15,45,10.60
2008,10,14,15,46,10.60
2008,10,14,15,47,10.60
2008,10,14,15,48,10.60
2008,10,14,15,49,10.60
2008,10,14,15,50,10.60
2008,10,14,15,51,10.60
2008,10,14,15,52,10.60
2008,10,14,15,53,10.60
2008,10,14,15,54,10.60
2008,10,14,15,55,10.70
2008,10,14,15,56,10.80
2008,10,14,15,57,10.80
2008,10,14,15,58,10.80
2008,10,14,15,59,10.80
2008,10,14,16,00,10.80
2008,10,14,16,01,10.90
2008,10,14,16,02,10.90
2008,10,14,16,03,11.00
2008,10,14,16,04,11.10
2008,10,14,16,05,11.10
2008,10,14,16,06,11.10
2008,10,14,16,07,11.10
2008,10,14,16,08,11.10
2008,10,14,16,09,11.10
2008,10,14,16,10,11.10
2008,10,14,16,11,11.20
2008,10,14,16,12,11.20
2008,10,14,16,13,11.30
2008,10,14,16,14,11.30
2008,10,14,16,15,11.40
2008,10,14,16,16,11.40
2008,10,14,16,17,11.40
2008,10,14,16,18,11.40
2008,10,14,16,19,11.40
2008,10,14,16,20,11.30
2008,10,14,16,21,11.30
2008,10,14,16,22,11.20
2008,10,14,16,23,11.20
2008,10,14,16,24,11.20
2008,10,14,16,25,11.20
2008,10,14,16,26,11.20
2008,10,14,16,27,11.20
2008,10,14,16,28,11.30
2008,10,14,16,29,11.30
2008,10,14,16,30,11.30
2008,10,14,16,31,11.30
2008,10,14,16,32,11.20
2008,10,14,16,33,11.20
2008,10,14,16,34,11.20
2008,10,14,16,35,11.20
2008,10,14,16,36,11.20
2008,10,14,16,37,11.20
2008,10,14,16,38,11.20
2008,10,14,16,39,11.30
2008,10,14,16,40,11.30
2008,10,14,16,41,11.40
2008,10,14,16,42,11.40
2008,10,14,16,43,11.40
2008,10,14,16,44,11.40
2008,10,14,16,45,11.60
2008,10,14,16,46,11.60
2008,10,14,16,47,11.60
2008,10,14,16,48,11.60
2008,10,14,16,49,11.60
2008,10,14,16,50,11.70
2008,10,14,16,51,11.70
2008,10,14,16,52,11.70
2008,10,14,16,53,11.70
2008,10,14,16,54,11.70
2008,10,14,16,55,11.70
2008,10,14,16,56,11.70
2008,10,14,16,57,11.70
2008,10,14,16,58,11.70
2008,10,14,16,59,11.60
2008,10,14,17,00,11.60
2008,10,14,17,01,11.60
2008,10,14,17,02,11.60
2008,10,14,17,03,11.60
2008,10,14,17,04,11.50
2008,10,14,17,05,11.40
2008,10,14,17,06,11.40
2008,10,14,17,07,11.30
2008,10,14,17,08,11.30
2008,10,14,17,09,11.20
2008,10,14,17,10,11.20
2008,10,14,17,11,11.10
2008,10,14,17,12,11.10
2008,10,14,17,13,11.10
2008,10,14,17,14,11.10
2008,10,14,17,15,10.90
2008,10,14,17,16,10.90
2008,10,14,17,17,10.90
2008,10,14,17,18,10.90
2008,10,14,17,19,10.90
2008,10,14,17,20,10.90
2008,10,14,17,21,10.90
2008,10,14,17,22,10.80
2008,10,14,17,23,10.80
2008,10,14,17,24,10.80
2008,10,14,17,25,10.80
2008,10,14,17,26,10.80
2008,10,14,17,27,10.70
2008,10,14,17,28,10.70
2008,10,14,17,29,10.60
2008,10,14,17,30,10.60
2008,10,14,17,31,10.60
2008,10,14,17,32,10.60
2008,10,14,17,33,10.60
2008,10,14,17,34,10.50
2008,10,14,17,35,10.40
2008,10,14,17,36,10.40
2008,10,14,17,37,10.40
2008,10,14,17,38,10.40
2008,10,14,17,39,10.30
2008,10,14,17,40,10.30
2008,10,14,17,41,10.20
2008,10,14,17,42,10.20
2008,10,14,17,43,10.20
2008,10,14,17,44,10.20
2008,10,14,17,45,10.10
2008,10,14,17,46,10.10
2008,10,14,17,47,10.10
2008,10,14,17,48,10.10
2008,10,14,17,49,10.10
2008,10,14,17,50,10.00
2008,10,14,17,51,9.90
2008,10,14,17,52,9.90
2008,10,14,17,53,9.90
2008,10,14,17,54,9.90
2008,10,14,17,55,9.90
2008,10,14,17,56,9.80
2008,10,14,17,57,9.80
2008,10,14,17,58,9.80
2008,10,14,17,59,9.80
2008,10,14,18,00,9.70
2008,10,14,18,01,9.70
2008,10,14,18,02,9.70
2008,10,14,18,03,9.70
2008,10,14,18,04,9.60
2008,10,14,18,05,9.60
2008,10,14,18,06,9.60
2008,10,14,18,07,9.50
2008,10,14,18,08,9.50
2008,10,14,18,09,9.40
2008,10,14,18,10,9.40
2008,10,14,18,11,9.30
2008,10,14,18,12,9.30
2008,10,14,18,13,9.30
2008,10,14,18,14,9.20
2008,10,14,18,15,9.20
2008,10,14,18,16,9.20
2008,10,14,18,17,9.10
2008,10,14,18,18,9.10
2008,10,14,18,19,9.00
2008,10,14,18,20,9.00
2008,10,14,18,21,8.90
2008,10,14,18,22,8.90
2008,10,14,18,23,8.80
2008,10,14,18,24,8.70
2008,10,14,18,25,8.70
2008,10,14,18,26,8.60
2008,10,14,18,27,8.60
2008,10,14,18,28,8.50
2008,10,14,18,29,8.40
2008,10,14,18,30,8.40
2008,10,14,18,31,8.30
2008,10,14,18,32,8.20
2008,10,14,18,33,8.20
2008,10,14,18,34,8.20
2008,10,14,18,35,8.10
2008,10,14,18,36,8.00
2008,10,14,18,37,7.90
2008,10,14,18,38,7.90
2008,10,14,18,39,7.80
2008,10,14,18,40,7.80